This is the latest recevied weather packets stored in our database for station/object M0TUM-1. If no packets are shown the sender has not sent any weather packets the latest 10 day(s).
| Time | Temp. | Humidity | Pressure | Rain* | Wind** | Luminosity | Snow |
|---|---|---|---|---|---|---|---|
| 1778141240 | 10.56° C | 70% | 1016.8 hPa | 0 mm | - | 311 W/m² | - |
| 1778140936 | 10.56° C | 69% | 1017 hPa | 0 mm | - | 259 W/m² | - |
| 1778140632 | 10.56° C | 70% | 1016.7 hPa | 0 mm | - | 290 W/m² | - |
| 1778140328 | 10° C | 71% | 1016.8 hPa | 0 mm | - | 229 W/m² | - |
| 1778140024 | 10° C | 73% | 1016.7 hPa | 0 mm | - | 204 W/m² | - |
| 1778139723 | 9.44° C | 74% | 1016.8 hPa | 0 mm | - | 218 W/m² | - |
| 1778139419 | 9.44° C | 74% | 1016.8 hPa | 0 mm | - | 161 W/m² | - |
| 1778139115 | 9.44° C | 75% | 1016.5 hPa | 0 mm | - | 129 W/m² | - |
| 1778138813 | 9.44° C | 75% | 1016.6 hPa | 0 mm | - | 125 W/m² | - |
| 1778138510 | 9.44° C | 74% | 1016.5 hPa | 0 mm | - | 121 W/m² | - |
| 1778138208 | 9.44° C | 74% | 1016.6 hPa | 0 mm | - | 98 W/m² | - |
| 1778137904 | 9.44° C | 75% | 1016.5 hPa | 0 mm | - | 100 W/m² | - |
| 1778137601 | 8.89° C | 75% | 1016.5 hPa | 0 mm | - | 109 W/m² | - |
| 1778137298 | 8.89° C | 75% | 1016.8 hPa | 0 mm | - | 91 W/m² | - |
| 1778136994 | 8.89° C | 75% | 1016.6 hPa | 0 mm | - | 79 W/m² | - |
| 1778136691 | 8.89° C | 75% | 1016.4 hPa | 0 mm | - | 79 W/m² | - |
| 1778136389 | 9.44° C | 75% | 1016.6 hPa | 0 mm | - | 84 W/m² | - |
| 1778136088 | 9.44° C | 76% | 1016.7 hPa | 0 mm | - | 85 W/m² | - |
| 1778135785 | 9.44° C | 76% | 1016.6 hPa | 0 mm | - | 81 W/m² | - |
| 1778135481 | 8.89° C | 76% | 1016.3 hPa | 0 mm | - | 89 W/m² | - |
| 1778135178 | 8.89° C | 76% | 1016.5 hPa | 0 mm | - | 79 W/m² | - |
| 1778134876 | 8.89° C | 77% | 1016.3 hPa | 0 mm | - | 72 W/m² | - |
| 1778134573 | 8.89° C | 77% | 1016.5 hPa | 0 mm | - | 68 W/m² | - |
| 1778134271 | 8.89° C | 77% | 1016.6 hPa | 0 mm | - | 69 W/m² | - |
| 1778133969 | 8.89° C | 77% | 1016.3 hPa | 0 mm | - | 83 W/m² | - |
* Rain latest hour (hover to see other rain measurements)
** Current wind speed in m/s (hover to see current wind gust speed)